Regional Weather Roundup
Issued by NWS Mt. Holly, NJ

Home | Current Version | Previous Version | Text Only | Print | Product List | Glossary On
Versions: 1 2 3 4 5 6 7 8 9 10 11 12 13 14 15 16 17 18 19 20 21 22 23 24 25 26 27 28 29 30 31 32 33 34 35 36 37 38 39 40 41 42 43 44 45 46 47 48 49 50
000
ASUS41 KPHI 291612
RWRPHI

REGIONAL WEATHER ROUNDUP
NATIONAL WEATHER SERVICE MOUNT HOLLY NJ
1200 PM EDT THU JUN 29 2017

NOTE:  "FAIR" INDICATES FEW OR NO CLOUDS BELOW 12,000 FEET WITH NO
SIGNIFICANT WEATHER AND/OR OBSTRUCTIONS TO VISIBILITY.

 * = STATION DOES NOT REPORT PRECIPITATION (E.G. RAIN, SNOW, ETC.)
        OR FOG.

NJZ015>026-291700-
SOUTHERN NEW JERSEY

CITY           SKY/WX    TMP DP  RH WIND       PRES   REMARKS
POMONA         CLOUDY    78  64  61 S14       30.16F
WILDWOOD*      CLOUDY    79  66  64 S10       30.17F
MILLVILLE      SUNNY     81  65  58 VRB7G20   30.15F
WRIGHTSTOWN    MOSUNNY   82  62  51 SW13      30.10F
MOUNT HOLLY    MOSUNNY   81  61  50 SW9       30.12F
TRENTON        MOSUNNY   80  63  55 SW12      30.12F

$$
NJZ001>014-291700-
NORTHERN NEW JERSEY

CITY           SKY/WX    TMP DP  RH WIND       PRES   REMARKS
SUSSEX         SUNNY     76  61  59 SW9       30.10F
ANDOVER*         N/A     76  59  55 SW13      30.11F
MORRISTOWN     MOSUNNY   77  61  57 SW12G20   30.12F
NEWARK         PTSUNNY   80  61  52 S12       30.10F
TETERBORO      MOSUNNY   80  60  50 S15       30.09F
CALDWELL       SUNNY     80  59  48 SW6G18    30.11F
SOMERVILLE     MOSUNNY   80  64  58 S10       30.09F
ALLAIRE*       SUNNY     81  60  48 S14G20    30.14F

$$
PAZ043-044-047-054-055-060>062-066>071-291700-
EASTERN PENNSYLVANIA

CITY           SKY/WX    TMP DP  RH WIND       PRES   REMARKS
PHILADELPHIA   PTSUNNY   81  60  48 S14G23    30.13F
NORTH PHILA    SUNNY     82  61  48 SW14G20   30.13F
BLUE BELL*     MOSUNNY   79  63  57 SW7       30.13F
DOYLESTOWN     SUNNY     78  61  55 S9        30.12F
QUAKERTOWN*    CLOUDY    79  61  53 SW9       30.13F
PERKASIE*      FAIR      77  63  61 S3        30.13F
POTTSTOWN      CLOUDY    79  61  53 SW10      30.13F
LANCASTER      CLOUDY    81  63  54 SW10      30.11F
COATESVILLE    CLOUDY    77  61  57 VRB7      30.15F
READING        CLOUDY    80  63  55 SW9       30.10F
ALLENTOWN      SUNNY     80  60  50 W10       30.10F
MOUNT POCONO   MOSUNNY   72  58  61 S10G16    30.14F
HAZLETON         N/A     79  57  47 S6        30.15F
LEHIGHTON      FAIR      77  59  53 SW6       30.10F
WILKES BARRE   CLOUDY    79  58  48 SW9       30.08F

$$
DEZALL-MDZ008-012-015-019-020-291700-
DELAWARE AND EASTERN MARYLAND

CITY           SKY/WX    TMP DP  RH WIND       PRES   REMARKS
WILMINGTON     CLOUDY    81  61  50 SW14      30.13F
DOVER          MOSUNNY   83  65  54 SW16      30.12F
GEORGETOWN     MOSUNNY   83  59  44 SW14      30.17F
EASTON         PTSUNNY   82  59  44 SW13      30.18F
ABERDEEN       PTSUNNY   80  64  58 SW9       30.13F
PATUXENT       PTSUNNY   81  61  50 S13       30.15F
OCEAN CITY     MOSUNNY   76  67  73 S12G20    30.20F
WALLOPS ISLAND CLOUDY    78  69  73 S13       30.20F
CAMBRIDGE      SUNNY     81  63  54 VRB7      30.16F
SALISBURY      MOSUNNY   82  61  48 SW14G23   30.18F

$$
PAZ001-021-NYZ056-072-MDZ011-DCZ001-291700-
OTHER NEARBY LOCATIONS

CITY           SKY/WX    TMP DP  RH WIND       PRES   REMARKS
HARRISBURG     MOSUNNY   81  63  54 SE7       30.08F
STATE COLLEGE  MOSUNNY   75  59  57 S9        30.09S
WILLIAMSPORT   MOSUNNY   80  60  50 VRB6      30.05F
BINGHAMTON     MOSUNNY   71  54  54 SW9       30.06F
NEW YORK CITY  MOSUNNY   78  62  57 MISG      30.14F
BALTIMORE      CLOUDY    83  59  44 S9G18     30.11F
WASHINGTON DC  CLOUDY    83  61  47 S13       30.13F

$$



USA.gov is the U.S. government's official web portal to all federal, state and local government web resources and services.